UPS125 LGKR-LBSF

Flight info

Callsign UPS125
Flight time 1h 16m
Altitude 35000
Route NIKRO DCT OVVER DCT SIN/N0396F190 T215 VELBA T343 MOREK
Aircraft B752/M-SDE3FGHIM3RWXY/LB1

Departure

Time 2026-04-29 13:39
Airport Corfu Ioannis Kapodistrias International Airport (LGKR)

Arrival

Time 2026-04-29 14:56
Airport Sofia Airport (LBSF)
Time Latitude Longitude Altitude Speed Heading
2026-04-29 13:31 39.60977 19.91230 12 ft 0 kts 78°
2026-04-29 13:32 39.60974 19.91214 12 ft 2 kts 73°
2026-04-29 13:32 39.60970 19.91195 12 ft 2 kts 76°
2026-04-29 13:32 39.60966 19.91176 12 ft 2 kts 75°
2026-04-29 13:33 39.60962 19.91159 12 ft 1 kts 74°
2026-04-29 13:33 39.60963 19.91147 12 ft 1 kts 135°
2026-04-29 13:33 39.60969 19.91142 12 ft 0 kts 169°
2026-04-29 13:33 39.60975 19.91141 12 ft 0 kts 169°
2026-04-29 13:35 39.60973 19.91142 12 ft 2 kts 169°
2026-04-29 13:35 39.60915 19.91157 12 ft 11 kts 169°
2026-04-29 13:35 39.60836 19.91177 12 ft 10 kts 168°
2026-04-29 13:35 39.60769 19.91195 11 ft 10 kts 169°
2026-04-29 13:36 39.60690 19.91214 10 ft 12 kts 169°
2026-04-29 13:36 39.60600 19.91206 9 ft 13 kts 207°
2026-04-29 13:36 39.60509 19.91160 9 ft 13 kts 189°
2026-04-29 13:36 39.60414 19.91158 9 ft 15 kts 169°
2026-04-29 13:37 39.60245 19.91201 9 ft 33 kts 169°
2026-04-29 13:37 39.59963 19.91272 11 ft 46 kts 169°
2026-04-29 13:37 39.59648 19.91355 12 ft 46 kts 168°
2026-04-29 13:37 39.59336 19.91436 12 ft 44 kts 169°
2026-04-29 13:38 39.59181 19.91457 12 ft 5 kts 135°
2026-04-29 13:38 39.59188 19.91474 12 ft 2 kts 354°
2026-04-29 13:38 39.59199 19.91471 12 ft 3 kts 349°
2026-04-29 13:38 39.59409 19.91418 12 ft 68 kts 348°
2026-04-29 13:39 39.60152 19.91225 10 ft 146 kts 348°
2026-04-29 13:39 39.61298 19.90934 429 ft 181 kts 347°
2026-04-29 13:39 39.62509 19.90644 1447 ft 181 kts 348°
2026-04-29 13:39 39.63693 19.89916 1896 ft 205 kts 313°
2026-04-29 13:40 39.64343 19.88225 2499 ft 222 kts 274°
2026-04-29 13:40 39.64151 19.86279 3443 ft 223 kts 257°
2026-04-29 13:40 39.64098 19.84237 4136 ft 239 kts 284°
2026-04-29 13:40 39.64669 19.82163 4952 ft 248 kts 292°
2026-04-29 13:41 39.65343 19.80112 5970 ft 250 kts 295°
2026-04-29 13:41 39.66069 19.78092 6949 ft 253 kts 296°
2026-04-29 13:41 39.66842 19.76059 7955 ft 253 kts 297°
2026-04-29 13:41 39.67629 19.74048 8860 ft 257 kts 297°
2026-04-29 13:42 39.68454 19.71975 9810 ft 259 kts 298°
2026-04-29 13:42 39.69287 19.69900 10681 ft 262 kts 298°
2026-04-29 13:42 39.70158 19.67846 11561 ft 264 kts 306°
2026-04-29 13:42 39.71531 19.66277 12377 ft 269 kts 334°
2026-04-29 13:43 39.73357 19.65756 13177 ft 277 kts
2026-04-29 13:43 39.75202 19.66421 13972 ft 286 kts 28°
2026-04-29 13:43 39.76673 19.68171 14739 ft 296 kts 56°
2026-04-29 13:43 39.77422 19.70678 15488 ft 305 kts 82°
2026-04-29 13:44 39.77260 19.73427 16233 ft 311 kts 108°
2026-04-29 13:44 39.76203 19.75869 16930 ft 315 kts 135°
2026-04-29 13:44 39.74474 19.77570 17650 ft 315 kts 156°
2026-04-29 13:44 39.72496 19.78845 18337 ft 319 kts 152°
2026-04-29 13:45 39.70652 19.80389 19059 ft 322 kts 146°
2026-04-29 13:45 39.68823 19.82146 19748 ft 327 kts 143°
2026-04-29 13:45 39.67030 19.83986 20443 ft 331 kts 142°
2026-04-29 13:45 39.65250 19.85886 21152 ft 333 kts 141°
2026-04-29 13:46 39.63492 19.87802 21793 ft 337 kts 141°
2026-04-29 13:46 39.61783 19.90024 22035 ft 356 kts 127°
2026-04-29 13:46 39.60553 19.92870 22108 ft 377 kts 110°
2026-04-29 13:46 39.59927 19.96236 22175 ft 396 kts 95°
2026-04-29 13:47 39.59729 19.99867 22217 ft 416 kts 93°
2026-04-29 13:47 39.59465 20.03702 22247 ft 436 kts 95°
2026-04-29 13:47 39.59179 20.07642 22573 ft 445 kts 92°
2026-04-29 13:47 39.59258 20.11676 23175 ft 448 kts 82°
2026-04-29 13:48 39.59866 20.15610 23770 ft 448 kts 71°
2026-04-29 13:48 39.60992 20.19392 24338 ft 450 kts 61°
2026-04-29 13:48 39.62602 20.22874 24933 ft 451 kts 51°
2026-04-29 13:48 39.64636 20.25942 25513 ft 451 kts 41°
2026-04-29 13:49 39.67023 20.28512 26041 ft 451 kts 32°
2026-04-29 13:49 39.69754 20.30555 26605 ft 450 kts 22°
2026-04-29 13:49 39.72660 20.31952 27095 ft 451 kts 12°
2026-04-29 13:49 39.75732 20.32700 27623 ft 450 kts
2026-04-29 13:50 39.78872 20.32770 28083 ft 451 kts 353°
2026-04-29 13:50 39.81943 20.32156 28578 ft 451 kts 344°
2026-04-29 13:50 39.84960 20.30844 29069 ft 451 kts 334°
2026-04-29 13:50 39.87707 20.28925 29537 ft 452 kts 325°
2026-04-29 13:51 39.90287 20.26578 30028 ft 453 kts 323°
2026-04-29 13:51 39.92860 20.24208 30597 ft 453 kts 323°
2026-04-29 13:51 39.95435 20.21836 31200 ft 451 kts 323°
2026-04-29 13:51 39.98003 20.19470 31749 ft 450 kts 323°
2026-04-29 13:52 40.00547 20.17124 32321 ft 448 kts 323°
2026-04-29 13:52 40.03083 20.14786 32841 ft 447 kts 323°
2026-04-29 13:52 40.05599 20.12465 33397 ft 444 kts 323°
2026-04-29 13:52 40.08206 20.10300 33808 ft 446 kts 330°
2026-04-29 13:53 40.11082 20.08680 34304 ft 447 kts 339°
2026-04-29 13:53 40.14052 20.07546 34709 ft 447 kts 343°
2026-04-29 13:53 40.17073 20.06695 35061 ft 447 kts 346°
2026-04-29 13:53 40.20168 20.06002 35088 ft 447 kts 348°
2026-04-29 13:54 40.26351 20.04927 35096 ft 449 kts 350°
2026-04-29 13:54 40.32529 20.04038 35090 ft 447 kts 351°
2026-04-29 13:55 40.38707 20.03225 35094 ft 447 kts 351°
2026-04-29 13:55 40.44907 20.02459 35093 ft 447 kts 354°
2026-04-29 13:56 40.51143 20.03313 35107 ft 457 kts 12°
2026-04-29 13:56 40.56943 20.06880 35107 ft 466 kts 31°
2026-04-29 13:57 40.61652 20.12788 35104 ft 475 kts 48°
2026-04-29 13:57 40.65115 20.18426 35091 ft 476 kts 47°
2026-04-29 13:58 40.69995 20.26226 35081 ft 475 kts 47°
2026-04-29 13:58 40.74195 20.32914 35092 ft 475 kts 46°
2026-04-29 13:59 40.78388 20.39595 35084 ft 474 kts 46°
2026-04-29 13:59 40.82598 20.46311 35096 ft 474 kts 46°
2026-04-29 14:00 40.86784 20.53004 35097 ft 476 kts 46°
2026-04-29 14:00 40.90984 20.59731 35092 ft 475 kts 46°
2026-04-29 14:01 40.95161 20.66439 35089 ft 475 kts 47°
2026-04-29 14:01 40.99367 20.73205 35080 ft 476 kts 47°
2026-04-29 14:02 41.03564 20.79973 35080 ft 476 kts 47°
2026-04-29 14:02 41.07742 20.86726 35089 ft 476 kts 47°
2026-04-29 14:03 41.11937 20.93520 35106 ft 476 kts 47°
2026-04-29 14:03 41.16104 21.00285 35110 ft 475 kts 47°
2026-04-29 14:04 41.20277 21.07074 35107 ft 475 kts 46°
2026-04-29 14:04 41.24453 21.13884 35103 ft 476 kts 46°
2026-04-29 14:05 41.28639 21.20724 35089 ft 477 kts 46°
2026-04-29 14:05 41.32791 21.27527 35081 ft 476 kts 46°
2026-04-29 14:06 41.36951 21.34355 35086 ft 476 kts 46°
2026-04-29 14:06 41.41122 21.41216 35089 ft 477 kts 46°
2026-04-29 14:07 41.45284 21.48080 35087 ft 476 kts 46°
2026-04-29 14:07 41.49429 21.54930 35088 ft 477 kts 46°
2026-04-29 14:08 41.53606 21.61849 35090 ft 478 kts 46°
2026-04-29 14:08 41.57771 21.68766 35067 ft 478 kts 46°
2026-04-29 14:09 41.61901 21.75639 35045 ft 478 kts 46°
2026-04-29 14:09 41.66077 21.82603 35047 ft 479 kts 46°
2026-04-29 14:10 41.70239 21.89561 35036 ft 479 kts 46°
2026-04-29 14:10 41.74392 21.96521 35035 ft 478 kts 46°
2026-04-29 14:11 41.78528 22.03466 35026 ft 478 kts 46°
2026-04-29 14:11 41.82658 22.10418 35038 ft 480 kts 46°
2026-04-29 14:12 41.86809 22.17422 35042 ft 480 kts 46°
2026-04-29 14:12 41.90958 22.24438 35038 ft 480 kts 46°
2026-04-29 14:13 41.94865 22.31723 35046 ft 487 kts 56°
2026-04-29 14:13 41.97189 22.40314 34952 ft 502 kts 74°
2026-04-29 14:14 41.97619 22.44945 34754 ft 499 kts 84°
2026-04-29 14:14 41.97633 22.49595 34139 ft 498 kts 88°
2026-04-29 14:14 41.97556 22.54211 33346 ft 496 kts 88°
2026-04-29 14:14 41.97463 22.58802 32618 ft 489 kts 89°
2026-04-29 14:15 41.97357 22.63339 31944 ft 483 kts 89°
2026-04-29 14:15 41.97243 22.67817 31315 ft 483 kts 90°
2026-04-29 14:15 41.97123 22.72347 30705 ft 488 kts 90°
2026-04-29 14:15 41.97049 22.76933 30092 ft 491 kts 86°
2026-04-29 14:16 41.97399 22.81458 29516 ft 488 kts 77°
2026-04-29 14:16 41.98260 22.85831 28932 ft 480 kts 67°
2026-04-29 14:16 41.99592 22.89887 28293 ft 469 kts 57°
2026-04-29 14:16 42.01324 22.93479 27650 ft 457 kts 48°
2026-04-29 14:17 42.03375 22.96680 27030 ft 447 kts 43°
2026-04-29 14:17 42.05492 22.99735 26426 ft 442 kts 42°
2026-04-29 14:17 42.07592 23.02679 25848 ft 439 kts 41°
2026-04-29 14:17 42.09735 23.05630 25277 ft 435 kts 41°
2026-04-29 14:18 42.11846 23.08505 24725 ft 432 kts 41°
2026-04-29 14:18 42.13943 23.11342 24187 ft 427 kts 41°
2026-04-29 14:18 42.16051 23.14188 23665 ft 424 kts 40°
2026-04-29 14:18 42.18112 23.16963 23161 ft 422 kts 40°
2026-04-29 14:19 42.20200 23.19774 22646 ft 419 kts 40°
2026-04-29 14:19 42.22286 23.22470 22134 ft 413 kts 36°
2026-04-29 14:19 42.24609 23.24667 21653 ft 404 kts 25°
2026-04-29 14:19 42.27147 23.26214 21176 ft 398 kts 13°
2026-04-29 14:20 42.29784 23.27047 20620 ft 391 kts
2026-04-29 14:20 42.32472 23.27248 19988 ft 384 kts 353°
2026-04-29 14:20 42.35101 23.26813 19391 ft 373 kts 344°
2026-04-29 14:20 42.37580 23.25974 18836 ft 367 kts 340°
2026-04-29 14:21 42.39993 23.24906 18324 ft 365 kts 336°
2026-04-29 14:21 42.42373 23.23705 17817 ft 363 kts 335°
2026-04-29 14:21 42.44723 23.22433 17337 ft 361 kts 334°
2026-04-29 14:21 42.47033 23.21125 16881 ft 359 kts 334°
2026-04-29 14:22 42.49313 23.19800 16429 ft 356 kts 333°
2026-04-29 14:22 42.51585 23.18455 15979 ft 354 kts 332°
2026-04-29 14:22 42.53686 23.16726 15528 ft 349 kts 321°
2026-04-29 14:22 42.55643 23.14775 15098 ft 349 kts 321°
2026-04-29 14:23 42.57575 23.12857 14676 ft 346 kts 321°
2026-04-29 14:23 42.59515 23.10916 14229 ft 344 kts 321°
2026-04-29 14:23 42.61293 23.08895 14055 ft 326 kts 310°
2026-04-29 14:23 42.62505 23.06410 14014 ft 306 kts 292°
2026-04-29 14:24 42.63064 23.03709 14008 ft 287 kts 280°
2026-04-29 14:24 42.63381 23.01110 13977 ft 271 kts 278°
2026-04-29 14:24 42.63631 22.98625 13956 ft 256 kts 277°
2026-04-29 14:24 42.63824 22.96306 13927 ft 242 kts 276°
2026-04-29 14:25 42.63990 22.94054 13690 ft 238 kts 275°
2026-04-29 14:25 42.64138 22.91822 13314 ft 238 kts 275°
2026-04-29 14:25 42.64276 22.89594 12740 ft 240 kts 275°
2026-04-29 14:25 42.64414 22.87273 12187 ft 249 kts 275°
2026-04-29 14:26 42.64549 22.84920 11822 ft 248 kts 275°
2026-04-29 14:26 42.64677 22.82653 11557 ft 245 kts 276°
2026-04-29 14:26 42.65131 22.80432 11069 ft 250 kts 301°
2026-04-29 14:26 42.66372 22.78836 10904 ft 244 kts 331°
2026-04-29 14:27 42.68029 22.78288 10455 ft 255 kts 357°
2026-04-29 14:27 42.69823 22.78437 9959 ft 262 kts
2026-04-29 14:27 42.71453 22.79376 9869 ft 257 kts 33°
2026-04-29 14:28 42.73199 22.83514 8985 ft 271 kts 92°
2026-04-29 14:28 42.73011 22.86060 8516 ft 265 kts 96°
2026-04-29 14:28 42.72831 22.88452 8370 ft 249 kts 94°
2026-04-29 14:28 42.72667 22.90822 7871 ft 254 kts 94°
2026-04-29 14:29 42.72509 22.93221 7491 ft 256 kts 94°
2026-04-29 14:29 42.72356 22.95647 7048 ft 261 kts 94°
2026-04-29 14:29 42.72208 22.98062 6854 ft 252 kts 93°
2026-04-29 14:29 42.72069 23.00370 6721 ft 235 kts 93°
2026-04-29 14:30 42.71944 23.02489 6641 ft 217 kts 93°
2026-04-29 14:30 42.71828 23.04482 6457 ft 204 kts 92°
2026-04-29 14:30 42.71720 23.06321 6449 ft 190 kts 92°
2026-04-29 14:30 42.71616 23.08161 6236 ft 200 kts 92°
2026-04-29 14:31 42.71509 23.10034 6045 ft 196 kts 92°
2026-04-29 14:31 42.71405 23.11829 5759 ft 184 kts 92°
2026-04-29 14:31 42.71309 23.13473 5540 ft 166 kts 92°
2026-04-29 14:31 42.71224 23.14934 5345 ft 147 kts 91°
2026-04-29 14:32 42.71146 23.16281 5119 ft 140 kts 91°
2026-04-29 14:32 42.71071 23.17614 4959 ft 144 kts 91°
2026-04-29 14:32 42.70992 23.18997 4778 ft 146 kts 91°
2026-04-29 14:32 42.70914 23.20352 4578 ft 143 kts 91°
2026-04-29 14:33 42.70835 23.21697 4391 ft 143 kts 91°
2026-04-29 14:33 42.70757 23.23040 4216 ft 142 kts 91°
2026-04-29 14:33 42.70679 23.24381 4032 ft 141 kts 91°
2026-04-29 14:33 42.70601 23.25696 3850 ft 140 kts 90°
2026-04-29 14:34 42.70523 23.27023 3668 ft 140 kts 90°
2026-04-29 14:34 42.70447 23.28326 3481 ft 139 kts 91°
2026-04-29 14:34 42.70370 23.29633 3292 ft 138 kts 91°
2026-04-29 14:34 42.70293 23.30942 3102 ft 138 kts 91°
2026-04-29 14:35 42.70216 23.32229 2917 ft 137 kts 91°
2026-04-29 14:35 42.70140 23.33514 2721 ft 136 kts 91°
2026-04-29 14:35 42.70075 23.34784 2526 ft 136 kts 90°
2026-04-29 14:35 42.69985 23.36068 2349 ft 133 kts 93°
2026-04-29 14:36 42.69904 23.37321 2193 ft 135 kts 91°
2026-04-29 14:36 42.69834 23.38571 1996 ft 130 kts 90°
2026-04-29 14:36 42.69764 23.39759 1824 ft 124 kts 91°
2026-04-29 14:36 42.69692 23.40971 2056 ft 136 kts 88°
2026-04-29 14:37 42.69622 23.42258 2866 ft 152 kts 90°
2026-04-29 14:37 42.69540 23.43880 3567 ft 186 kts 91°
2026-04-29 14:37 42.69441 23.45600 4685 ft 192 kts 92°
2026-04-29 14:37 42.69286 23.47368 5818 ft 197 kts 93°
2026-04-29 14:38 42.69174 23.49328 6068 ft 223 kts 92°
2026-04-29 14:38 42.69051 23.51457 6047 ft 221 kts 92°
2026-04-29 14:38 42.68928 23.53511 6099 ft 215 kts 92°
2026-04-29 14:38 42.68805 23.55547 6105 ft 215 kts 92°
2026-04-29 14:39 42.68681 23.57586 6104 ft 216 kts 92°
2026-04-29 14:39 42.68553 23.59602 6105 ft 216 kts 93°
2026-04-29 14:39 42.68419 23.61641 6106 ft 215 kts 93°
2026-04-29 14:39 42.68281 23.63660 6108 ft 214 kts 93°
2026-04-29 14:40 42.68140 23.65683 6108 ft 214 kts 94°
2026-04-29 14:40 42.67862 23.67655 6109 ft 215 kts 116°
2026-04-29 14:40 42.66848 23.69160 6150 ft 219 kts 153°
2026-04-29 14:40 42.65381 23.69582 6142 ft 218 kts 189°
2026-04-29 14:41 42.64024 23.68767 6169 ft 217 kts 227°
2026-04-29 14:41 42.63324 23.66971 6664 ft 226 kts 267°
2026-04-29 14:41 42.63358 23.64974 8131 ft 217 kts 276°
2026-04-29 14:41 42.63485 23.62824 7992 ft 235 kts 276°
2026-04-29 14:42 42.63607 23.60697 8007 ft 216 kts 276°
2026-04-29 14:42 42.63715 23.58743 7981 ft 201 kts 276°
2026-04-29 14:42 42.63819 23.56853 8003 ft 200 kts 276°
2026-04-29 14:42 42.63925 23.54934 8016 ft 208 kts 276°
2026-04-29 14:43 42.64048 23.52952 7991 ft 223 kts 281°
2026-04-29 14:43 42.64492 23.50715 7903 ft 250 kts 288°
2026-04-29 14:43 42.64945 23.48549 7773 ft 230 kts 285°
2026-04-29 14:43 42.65335 23.46459 7678 ft 225 kts 285°
2026-04-29 14:44 42.65700 23.44380 7601 ft 228 kts 284°
2026-04-29 14:44 42.66053 23.42272 7514 ft 228 kts 284°
2026-04-29 14:44 42.66391 23.40196 7420 ft 227 kts 283°
2026-04-29 14:44 42.66728 23.38092 7331 ft 226 kts 283°
2026-04-29 14:45 42.66930 23.36815 7277 ft 226 kts 283°
2026-04-29 14:45 42.67204 23.35082 7207 ft 227 kts 283°
2026-04-29 14:45 42.67533 23.32983 7130 ft 226 kts 283°
2026-04-29 14:46 42.67864 23.30867 7052 ft 227 kts 283°
2026-04-29 14:46 42.68191 23.28765 6967 ft 226 kts 283°
2026-04-29 14:46 42.68513 23.26695 6884 ft 225 kts 283°
2026-04-29 14:46 42.68838 23.24602 6803 ft 225 kts 283°
2026-04-29 14:47 42.69161 23.22515 6715 ft 225 kts 283°
2026-04-29 14:47 42.69482 23.20444 6615 ft 221 kts 283°
2026-04-29 14:47 42.69784 23.18480 6547 ft 205 kts 283°
2026-04-29 14:47 42.69972 23.17260 6548 ft 191 kts 283°
2026-04-29 14:48 42.70314 23.15038 6579 ft 170 kts 283°
2026-04-29 14:48 42.70563 23.13431 6612 ft 179 kts 283°
2026-04-29 14:48 42.70820 23.11769 6613 ft 181 kts 283°
2026-04-29 14:48 42.71076 23.10098 6580 ft 179 kts 283°
2026-04-29 14:49 42.71331 23.08435 6538 ft 180 kts 283°
2026-04-29 14:49 42.71865 23.06901 6256 ft 184 kts 316°
2026-04-29 14:49 42.72976 23.06225 6100 ft 175 kts 358°
2026-04-29 14:49 42.74102 23.06816 6124 ft 183 kts 42°
2026-04-29 14:50 42.74680 23.08391 6129 ft 196 kts 82°
2026-04-29 14:50 42.74388 23.10174 6118 ft 196 kts 120°
2026-04-29 14:50 42.73612 23.11707 6111 ft 198 kts 124°
2026-04-29 14:50 42.72832 23.13235 5994 ft 196 kts 123°
2026-04-29 14:51 42.72169 23.14837 5602 ft 196 kts 113°
2026-04-29 14:51 42.71621 23.16495 5279 ft 189 kts 112°
2026-04-29 14:51 42.71121 23.18114 5018 ft 182 kts 102°
2026-04-29 14:51 42.70961 23.19795 4757 ft 179 kts 91°
2026-04-29 14:52 42.70863 23.21478 4493 ft 177 kts 92°
2026-04-29 14:52 42.70759 23.23142 4235 ft 176 kts 92°
2026-04-29 14:52 42.70662 23.24738 4034 ft 163 kts 92°
2026-04-29 14:52 42.70572 23.26214 3778 ft 151 kts 91°
2026-04-29 14:53 42.70491 23.27571 3551 ft 138 kts 91°
2026-04-29 14:53 42.70417 23.28809 3371 ft 131 kts 91°
2026-04-29 14:53 42.70345 23.30078 3219 ft 137 kts 91°
2026-04-29 14:53 42.70268 23.31381 3032 ft 137 kts 91°
2026-04-29 14:54 42.70191 23.32673 2838 ft 138 kts 91°
2026-04-29 14:54 42.70114 23.33945 2648 ft 136 kts 92°
2026-04-29 14:54 42.70032 23.35242 2455 ft 138 kts 92°
2026-04-29 14:54 42.69950 23.36542 2288 ft 138 kts 93°
2026-04-29 14:55 42.69877 23.37841 2098 ft 135 kts 92°
2026-04-29 14:55 42.69805 23.39084 1904 ft 133 kts 93°
2026-04-29 14:55 42.69729 23.40342 1767 ft 132 kts 91°
2026-04-29 14:55 42.69665 23.41505 1756 ft 96 kts 94°
2026-04-29 14:56 42.69624 23.42140 1753 ft 54 kts 94°
2026-04-29 14:56 42.69535 23.42636 1750 ft 45 kts 125°
2026-04-29 14:56 42.69403 23.42702 1751 ft 16 kts 251°